THURAYA-3

Last updated on Tue Oct 08 2024 00:02:38 GMT+0000 (Coordinated Universal Time)

1 32404U 08001A 24281.61938222 -.00000290 00000+0 00000+0 0 9992 2 32404 5.0058 33.2801 0002144 162.0291 142.9448 1.00271470 61294
UTC large
Height (km)
Speed (km/s)
/
Latitude / Longitude
Inclination (degrees)
Orbital Period (minutes)
Azimuth
Elevation
Range (km)
Doppler Factor

Next 0 passes for location: London (51.5072 / 0.1276)

Sorry there are no passes over London.